Lexington Weather

Lexington, Massachusetts, USA

27°F
2/26/2021 8:20am 
  • Lexington Conditions: Clear
  • Temperature: 26.6°F / -3.0°CWarmer 2.0°F than last hour.
  • Dew Point: 16.3°FIncreased 1.0°Fsince last hour.
  • Relative Humidity: 65%Decreased 2.0% since last hour.
  • Wind: Wind from NNW NNW 2 mph, 10-min avg: 2 mph, gust: 3 mph
  • Barometer: 30.37 inRising 0.03  inHg/hr Rising Slowly
  • Visibility: 10 miles
  • Snow Today: 0.0 in
  •   

Regional Weather Roundup
for Boston / Norton, MA

        
000
ASUS41 KBOX 261304
RWRBOX

REGIONAL WEATHER ROUNDUP
NATIONAL WEATHER SERVICE BOSTON/NORTON MA
800 AM EST FRI FEB 26 2021

NOTE:  "FAIR" INDICATES FEW OR NO CLOUDS BELOW 12,000 FEET WITH NO 
SIGNIFICANT WEATHER AND/OR OBSTRUCTIONS TO VISIBILITY.

MAZALL-261400-
EASTERN MASSACHUSETTS
  
CITY           SKY/WX    TMP DP  RH WIND       PRES   REMARKS
BOSTON         MOSUNNY   30  12  47 NW9       30.41R WCI  22          
BEVERLY        SUNNY     28  12  51 NW9       30.40R WCI  19          
LAWRENCE       SUNNY     25  11  55 N8        30.42R WCI  16          
BEDFORD        SUNNY     25  14  63 CALM      30.40R                  
BLUE HILL        N/A     26  14  60 W9        30.35R WCI  17          
NORWOOD        SUNNY     31  19  61 VRB3      30.41R                  
MARSHFIELD     SUNNY     32  12  43 CALM      30.40R                  
PLYMOUTH       SUNNY     31  12  45 NW7       30.39R WCI  24          
TAUNTON        SUNNY     32  12  43 NW6       30.40R WCI  26          
NEW BEDFORD    SUNNY     33  12  41 NW7       30.40R WCI  27          
$$

MAZALL-261400-
CAPE COD AND THE ISLANDS
  
CITY           SKY/WX    TMP DP  RH WIND       PRES   REMARKS
FALMOUTH       SUNNY     32  10  40 NW7       30.40R WCI  26          
HYANNIS        SUNNY     33  12  41 NW9       30.38R WCI  25          
CHATHAM        SUNNY     35  17  47 NW8       30.40R WCI  29          
PROVINCETOWN   SUNNY     33  17  51 NW16      30.40R WCI  23          
NANTUCKET      SUNNY     34  14  43 NW13      30.40R WCI  25          
MARTHAS VNYRD  SUNNY     34  15  46 NW9       30.41R WCI  27          
$$
 
MAZALL-261400-
CENTRAL AND WESTERN MASSACHUSETTS
  
CITY           SKY/WX    TMP DP  RH WIND       PRES   REMARKS
WORCESTER      SUNNY     27  13  55 W8        30.35R WCI  19          
FITCHBURG      SUNNY     27  16  63 NE5       30.39R WCI  22          
ORANGE         SUNNY     24  15  68 CALM      30.38R                  
SPRINGFIELD    MOSUNNY   30  17  59 W8        30.39R WCI  22          
WESTFIELD      SUNNY     28  19  69 W3        30.41R                  
NORTH ADAMS    CLOUDY    28  16  60 W7        30.37R WCI  21          
PITTSFIELD     FLURRIES  24  17  74 W5        30.34R WCI  18          
$$
 
RIZALL-261400-
RHODE ISLAND
  
CITY           SKY/WX    TMP DP  RH WIND       PRES   REMARKS
PROVIDENCE     MOSUNNY   33  15  47 NW9       30.41R WCI  25          
NEWPORT        SUNNY     32  16  51 NW8       30.41R WCI  25          
BLOCK ISLAND   SUNNY     33  16  49 NW9       30.44R WCI  25          
SMITHFIELD     SUNNY     29  16  58 W6        30.39R WCI  23          
WESTERLY       SUNNY     30  16  56 CALM      30.44R                  
$$
 
CTZALL-261400-
CONNECTICUT
  
CITY           SKY/WX    TMP DP  RH WIND       PRES   REMARKS
BRADLEY INTL   MOSUNNY   30  18  60 W3        30.42R                  
HARTFORD       SUNNY     33  17  51 NW3       30.44R                  
BRIDGEPORT     SUNNY     34  18  52 NW3       30.45R                  
DANBURY        SUNNY     26  17  68 CALM      30.43R                  
GROTON         SUNNY     33  19  56 VRB3      30.43R                  
NEW HAVEN      SUNNY     34  20  56 CALM      30.44R                  
CHESTER        FAIR      34  16  47 N7        30.42R WCI  28          
MERIDEN        SUNNY     27  20  75 CALM      30.43R                  
WILLIMANTIC    SUNNY     31  17  56 NW9       30.42R WCI  23          
OXFORD         SUNNY     28  18  66 NW3       30.40R                  
$$

MEZ002-015-021-024-NHZ003-005-008-011-012-014-VTZ005-008-261400-
NORTHERN NEW ENGLAND
  
CITY           SKY/WX    TMP DP  RH WIND       PRES   REMARKS
PORTLAND ME    MOSUNNY   22   8  55 N3        30.37R                  
BANGOR ME      SUNNY     14  -2  49 NW15G24   30.34R WCI  -1          
CONCORD NH     SUNNY     22   8  55 NW14      30.39R WCI   9          
MANCHESTER NH  SUNNY     25  10  53 N7        30.38R WCI  17          
NASHUA NH      SUNNY     24  12  60 N3        30.41R                  
PORTSMOUTH NH  SUNNY     25   6  43 W10       30.38R WCI  15          
JAFFREY NH     SUNNY     24  11  57 VRB3      30.33R                  
KEENE NH       SUNNY     24  22  91 CALM      30.39R                  
BURLINGTON VT  SUNNY     20   7  57 N3        30.45R                  
MT. WASHINGTON NOT AVBL                                               
$$

NYZ052-076-261400-
EASTERN NEW YORK
  
CITY           SKY/WX    TMP DP  RH WIND       PRES   REMARKS
ALBANY         PTSUNNY   27  18  69 SW6       30.42R WCI  20          
NEW YORK CITY  MOSUNNY   36  15  42 N7        30.46R WCI  30          
$$
 
ANZALL-261400-
MARINE OBSERVATIONS
  
STATION/POSITION TIME  TEMP    WIND        PRES    VSBY  WAVE
                       AIR SEA DIR/SP/G                  HT/PER
                 (UTC) (F)     (DEG/KT/KT) (MB)    (MI)  (FT/S)
BOSTON BUOY      1240   30 39  330/ 10/ 14 1029.6R
BUZZARDS BAY     1200          320/  8/  9 1029.9R
NANTUCKET SOUND  1240      36  310/ 14/ 17   N/A
MASS BAY-STELLWA 1204   30     320/ 17/ 19 1027.3R  1 5/8  2/ 4
ISLE OF SHOALS   1200   26     310/ 15/ 17 1027.8R
S OF BLOCK IS    1226      40                N/A           3/ 4
$$

......................KEY.........................
  SKY/WX - SKY CONDITION/PRESENT WEATHER
  TMP    - TEMPERATURE IN FAHRENHEIT
  DWPT   - DEWPOINT IN FAHRENHEIT
  RH     - RELATIVE HUMIDITY IN PERCENT
  WIND   - DIRECTION AND SPEED IN MPH
  PRES   - MEAN SEA LEVEL PRESSURE IN INCHES OF HG
  WCI    - WIND CHILL INDEX
  VSB    - VISIBILITY IN MILES
  HX     - HEAT INDEX
  TC     - TEMPERATURE IN CELSIUS
  VRB    - VARIABLE WIND DIRECTION
  N/A    - NOT AVAILABLE
  
      

Other recent Regional Weather Roundups

Fri Feb 26, 7:04am

Fri Feb 26, 6:04am

Fri Feb 26, 5:04am

Fri Feb 26, 4:04am

Fri Feb 26, 3:04am

Fri Feb 26, 2:04am

Fri Feb 26, 1:04am

Fri Feb 26, 12:04am

Thu Feb 25, 11:04pm

Thu Feb 25, 10:04pm

Thu Feb 25, 9:04pm

Thu Feb 25, 8:05pm

Thu Feb 25, 7:05pm

Thu Feb 25, 6:04pm

Thu Feb 25, 5:04pm

Thu Feb 25, 4:05pm

Thu Feb 25, 3:05pm

Thu Feb 25, 2:04pm

Thu Feb 25, 1:04pm

Thu Feb 25, 12:05pm

Thu Feb 25, 11:04am

Thu Feb 25, 10:04am

Thu Feb 25, 9:04am

Thu Feb 25, 8:04am

Thu Feb 25, 7:04am

Thu Feb 25, 6:04am

Thu Feb 25, 5:04am

Thu Feb 25, 4:04am

Thu Feb 25, 3:04am

Thu Feb 25, 2:04am

Thu Feb 25, 1:04am

Thu Feb 25, 12:04am

Wed Feb 24, 11:04pm

Wed Feb 24, 10:05pm

Wed Feb 24, 9:04pm

Wed Feb 24, 8:04pm

Wed Feb 24, 7:04pm

Wed Feb 24, 6:04pm

Wed Feb 24, 5:04pm

Wed Feb 24, 4:04pm

Wed Feb 24, 3:04pm

Wed Feb 24, 2:05pm

Wed Feb 24, 1:05pm

Wed Feb 24, 12:05pm

Wed Feb 24, 11:04am

Wed Feb 24, 10:04am

Wed Feb 24, 9:04am

Wed Feb 24, 8:04am

Wed Feb 24, 7:04am

Wed Feb 24, 6:04am

Wed Feb 24, 5:04am

Wed Feb 24, 4:04am

Wed Feb 24, 3:04am

Wed Feb 24, 2:04am

Wed Feb 24, 1:04am

Wed Feb 24, 12:04am

Tue Feb 23, 11:04pm

Tue Feb 23, 10:04pm

Tue Feb 23, 9:04pm

Tue Feb 23, 8:05pm

Tue Feb 23, 7:04pm

Tue Feb 23, 6:04pm

Tue Feb 23, 5:04pm

Tue Feb 23, 4:05pm

Tue Feb 23, 3:04pm

Tue Feb 23, 2:04pm

Tue Feb 23, 1:04pm

Tue Feb 23, 12:04pm

Tue Feb 23, 11:04am

Tue Feb 23, 10:04am

Tue Feb 23, 9:04am

Tue Feb 23, 7:04am

Tue Feb 23, 6:04am

Tue Feb 23, 5:04am

Tue Feb 23, 4:04am

Tue Feb 23, 3:04am

Tue Feb 23, 2:04am

Tue Feb 23, 1:04am

Tue Feb 23, 12:04am

Mon Feb 22, 11:04pm

Mon Feb 22, 10:04pm

Mon Feb 22, 9:04pm

Mon Feb 22, 8:04pm

Mon Feb 22, 7:04pm

Mon Feb 22, 6:04pm

Mon Feb 22, 5:04pm

Mon Feb 22, 4:05pm

Mon Feb 22, 3:04pm

Mon Feb 22, 2:05pm

Mon Feb 22, 1:04pm

Mon Feb 22, 12:05pm

Mon Feb 22, 11:04am

Mon Feb 22, 10:04am

Mon Feb 22, 9:05am

Mon Feb 22, 8:04am

Mon Feb 22, 7:04am

Mon Feb 22, 6:04am

Mon Feb 22, 5:04am

Mon Feb 22, 4:04am

Mon Feb 22, 3:04am

Mon Feb 22, 2:04am

Mon Feb 22, 1:04am

Mon Feb 22, 12:04am

Sun Feb 21, 11:04pm

Sun Feb 21, 10:05pm

Sun Feb 21, 9:04pm

Sun Feb 21, 8:04pm

Sun Feb 21, 7:04pm

Sun Feb 21, 6:04pm

Sun Feb 21, 5:04pm

Sun Feb 21, 4:05pm

Sun Feb 21, 3:04pm

Sun Feb 21, 2:04pm

Sun Feb 21, 1:05pm

Sun Feb 21, 12:05pm

Sun Feb 21, 11:04am

Sun Feb 21, 10:05am

Sun Feb 21, 9:04am

Sun Feb 21, 8:04am

Sun Feb 21, 7:04am

Sun Feb 21, 6:04am

Sun Feb 21, 5:04am

Sun Feb 21, 4:04am

Sun Feb 21, 3:04am

Sun Feb 21, 2:04am

Sun Feb 21, 1:04am

Sun Feb 21, 12:04am

Sat Feb 20, 11:04pm

Sat Feb 20, 10:04pm

Sat Feb 20, 9:04pm

Sat Feb 20, 8:04pm

Sat Feb 20, 7:04pm

Sat Feb 20, 6:04pm

Sat Feb 20, 5:04pm

Sat Feb 20, 4:05pm

Sat Feb 20, 3:04pm

Sat Feb 20, 2:04pm

Sat Feb 20, 1:05pm

Sat Feb 20, 12:05pm

Sat Feb 20, 11:04am

Sat Feb 20, 10:05am

Sat Feb 20, 9:04am

Sat Feb 20, 8:04am

Sat Feb 20, 7:04am

Sat Feb 20, 6:04am

Sat Feb 20, 5:04am

Sat Feb 20, 4:04am

Sat Feb 20, 3:04am

Sat Feb 20, 2:04am

Sat Feb 20, 1:04am

Sat Feb 20, 12:04am

Fri Feb 19, 11:04pm

Fri Feb 19, 10:05pm

Fri Feb 19, 9:04pm

Fri Feb 19, 8:04pm

Fri Feb 19, 7:04pm

Fri Feb 19, 6:04pm

Fri Feb 19, 5:04pm

Fri Feb 19, 4:05pm

Fri Feb 19, 3:04pm

Fri Feb 19, 2:04pm

Fri Feb 19, 1:05pm

Fri Feb 19, 12:05pm

Fri Feb 19, 11:04am

Fri Feb 19, 10:04am

Fri Feb 19, 9:04am

Meta data:

ID: d177aa77-9021-4c9d-b91d-7af5718e40b0
Link: https://api.weather.gov/products/d177aa77-9021-4c9d-b91d-7af5718e40b0